Location: Allen Generating Plant
(35.0740°N, 90.1490°W)
Time: 19:29:21
(UTC+00:00)

Explorer 11/Cluster Stage 4 - Visible Passes

Search period start: 07 November 2024 00:00
Search period end: 17 November 2024 00:00
Orbit: 464 x 1205 km, 28.8° (Epoch: 06 November)

Date Brightness Start Highest point End Pass type
(mag) Time Alt. Az. Time Alt. Az. Time Alt. Az.
07 Nov 8.5 11:41:40 10° S 11:42:32 11° SSE 11:43:24 10° SE visible
08 Nov 8.4 11:21:28 10° S 11:22:59 12° SSE 11:24:29 10° SE visible
09 Nov 8.3 11:01:23 10° SSW 11:03:26 14° SSE 11:05:23 10° SE visible
10 Nov 8.2 10:42:06 12° SSW 10:43:52 15° SSE 10:46:13 10° SE visible
11 Nov 8.0 10:23:55 17° S 10:24:16 18° SSE 10:26:59 10° ESE visible
12 Nov 8.2 10:05:38 18° SSE 10:05:38 18° SSE 10:07:42 10° ESE visible
12 Nov 7.1 11:48:14 10° WSW 11:51:56 31° S 11:55:16 10° ESE visible
13 Nov 8.6 09:47:16 15° SE 09:47:16 15° SE 09:48:23 10° ESE visible
13 Nov 7.1 11:28:49 12° WSW 11:32:21 33° S 11:35:48 10° ESE visible
14 Nov 9.1 09:28:49 11° ESE 09:28:49 11° ESE 09:29:01 10° ESE visible
14 Nov 7.0 11:10:22 21° SW 11:12:43 35° S 11:16:20 10° ESE visible
15 Nov 7.0 10:51:51 31° SSW 10:53:02 37° S 10:56:51 10° ESE visible
16 Nov 7.0 10:33:17 39° S 10:33:20 39° S 10:37:22 10° ESE visible
